Location: Newark
(48.4472°N, 1.4892°E)
Time: 22:10:53
(UTC+00:00)

Vanguard 1 - All Passes

Search period start: 16 November 2019 00:00
Search period end: 26 November 2019 00:00
Orbit: 652 x 3831 km, 34.2° (Epoch: 13 November)

Date Brightness Start Highest point End Pass type
(mag) Time Alt. Az. Time Alt. Az. Time Alt. Az.
16 Nov - 11:27:06 10° SSW 11:31:15 16° S 11:34:33 10° SE daylight
16 Nov - 13:47:33 10° SW 13:50:29 15° S 13:53:10 10° SSE daylight
17 Nov - 09:28:51 10° S 09:32:06 12° SSE 09:34:50 10° SE daylight
17 Nov - 11:47:24 10° SW 11:52:00 18° S 11:55:34 10° SE daylight
17 Nov - 14:08:38 10° SW 14:11:07 14° SSW 14:13:26 10° SSE daylight
18 Nov - 09:47:45 10° SSW 09:52:57 16° SSE 09:56:56 10° SE daylight
18 Nov - 12:07:59 10° SW 12:12:43 20° S 12:16:22 10° SE daylight
18 Nov - 14:30:13 10° SW 14:31:43 11° SSW 14:33:10 10° S daylight
19 Nov - 10:07:31 10° SSW 10:13:48 19° S 10:18:18 10° SE daylight
19 Nov - 12:28:46 10° SW 12:33:24 20° S 12:37:00 10° SE daylight
20 Nov - 08:08:45 10° S 08:14:08 14° SSE 08:18:25 10° SE daylight
20 Nov - 10:27:46 10° SW 10:34:37 22° S 10:39:21 10° SE daylight
20 Nov - 12:49:43 10° WSW 12:54:03 19° SSW 12:57:29 10° SSE daylight
21 Nov - 08:27:31 10° SSW 08:35:03 18° SSE 08:40:29 10° ESE daylight
21 Nov - 10:48:18 10° SW 10:55:24 25° S 11:00:13 10° SE daylight
21 Nov - 13:10:53 10° WSW 13:14:39 17° SSW 13:17:44 10° SSE daylight
22 Nov - 06:33:03 10° SSE 06:34:43 10° SSE 06:36:18 10° SE visible
22 Nov - 08:47:07 10° SSW 08:55:57 22° SSE 09:01:55 10° ESE daylight
22 Nov - 11:09:03 10° WSW 11:16:09 26° S 11:20:57 10° SE daylight
22 Nov - 13:32:21 10° SW 13:35:11 14° SSW 13:37:38 10° S daylight
23 Nov - 06:48:24 10° S 06:55:40 15° SSE 07:01:20 10° ESE daylight
23 Nov - 09:07:14 10° SW 09:16:49 26° S 09:23:02 10° ESE daylight
23 Nov - 11:29:58 10° WSW 11:36:51 25° S 11:41:32 10° SE daylight
23 Nov - 13:55:03 10° SW 13:55:39 10° SSW 13:56:15 10° SSW daylight
24 Nov - 07:06:47 10° SSW 07:16:36 20° SSE 07:23:36 10° ESE daylight
24 Nov - 09:27:40 10° SW 09:37:41 29° S 09:43:58 10° ESE daylight
24 Nov - 11:51:02 10° WSW 11:57:30 24° SSW 12:02:00 10° SE daylight
25 Nov - 07:26:06 10° SSW 07:37:33 24° SSE 07:45:10 10° ESE daylight
25 Nov - 09:48:22 10° SW 09:58:31 31° S 10:04:45 10° ESE daylight
25 Nov - 12:12:15 10° WSW 12:18:04 21° SSW 12:22:17 10° SSE daylight
